Weather History for KSSF - November, 2013

Change the Weather History Date:

Wednesday, November 20, 2013

  Actual Average Record
Temperature  
Mean Temperature 70 °F -  
Max Temperature 77 °F 67 °F - (-1)
Min Temperature 62 °F 48 °F - (-1)
Cooling Degree Days 4    
Growing Degree Days 20 (Base 50)    
Moisture  
Dew Point 61 °F    
Average Humidity 74    
Maximum Humidity 88    
Minimum Humidity 60    
Precipitation  
Precipitation 0.00 in - - ()
Sea Level Pressure  
Sea Level Pressure 29.93 in    
Wind  
Wind Speed 6 mph (East)    
Max Wind Speed 10 mph    
Max Gust Speed -    
Visibility 10 miles    
Events Rain    
Averages and records for this station are not official NWS values.
T = Trace of Precipitation, MM = Missing Value Source: NWS Daily Summary

Daily Weather History Graph

Daily Weather History Graph

Search for Another Location

Airport or City:

Trip Planner

Search our weather history database for the weather conditions in past years. The results will help you decide how hot, cold, wet, or windy it might be!

Date:

Astronomy

Nov. 20, 2013 Rise Set
Actual Time 7:02 AM CST 5:36 PM CST
Civil Twilight 6:36 AM CST 6:02 PM CST
Nautical Twilight 6:07 AM CST 6:31 PM CST
Astronomical Twilight 5:39 AM CST 6:59 PM CST
Moon 8:20 PM CST (11/20) 9:27 AM CST (11/20)
Length of Visible Light 11h 25m
Length of Day
10h 34m
Waning Gibbous, 91% of the Moon is Illuminated
Nov 20
Waning Gibbous
Nov 25
Last Quarter
Dec 2
New
Dec 9
First Quarter
Dec 17
Full

Hourly Weather History & Observations

Time (CST) Temp. Dew Point Humidity Pressure Visibility Wind Dir Wind Speed Gust Speed Precip Events Conditions
12:23 AM 66.2 °F 55.4 °F 68% 30.00 in 10.0 mi ESE 8.1 mph - N/A   Overcast
12:53 AM 66.0 °F 55.0 °F 68% 29.98 in 10.0 mi ESE 10.4 mph - N/A   Overcast
1:53 AM 64.9 °F 55.9 °F 73% 29.97 in 10.0 mi East 6.9 mph - N/A   Mostly Cloudy
2:11 AM 62.6 °F 55.4 °F 77% 29.99 in 10.0 mi ENE 6.9 mph - N/A   Scattered Clouds
2:53 AM 63.0 °F 55.0 °F 75% 29.98 in 10.0 mi East 4.6 mph - N/A   Mostly Cloudy
3:07 AM 62.6 °F 55.4 °F 77% 29.99 in 10.0 mi East 4.6 mph - N/A   Overcast
3:18 AM 62.6 °F 55.4 °F 77% 29.99 in 10.0 mi ESE 5.8 mph - N/A   Overcast
3:53 AM 62.1 °F 55.9 °F 80% 29.97 in 10.0 mi SE 3.5 mph - N/A   Overcast
4:03 AM 62.6 °F 55.4 °F 77% 29.98 in 10.0 mi SSE 3.5 mph - N/A   Overcast
4:53 AM 63.0 °F 55.0 °F 75% 29.96 in 10.0 mi ESE 5.8 mph - N/A   Overcast
5:53 AM 63.0 °F 55.0 °F 75% 29.96 in 10.0 mi East 5.8 mph - N/A   Overcast
6:53 AM 63.0 °F 55.0 °F 75% 29.96 in 10.0 mi ENE 3.5 mph - N/A   Overcast
7:53 AM 64.0 °F 55.0 °F 73% 29.97 in 10.0 mi East 5.8 mph - N/A   Overcast
8:53 AM 64.9 °F 55.9 °F 73% 29.97 in 10.0 mi East 4.6 mph - N/A   Overcast
9:53 AM 66.9 °F 57.9 °F 73% 29.97 in 10.0 mi ESE 6.9 mph - N/A   Overcast
10:53 AM 70.0 °F 59.0 °F 68% 29.95 in 10.0 mi East 5.8 mph - N/A   Overcast
11:53 AM 73.9 °F 61.0 °F 64% 29.94 in 10.0 mi ESE 6.9 mph - N/A   Overcast
12:53 PM 75.9 °F 61.0 °F 60% 29.90 in 10.0 mi East 5.8 mph - N/A   Mostly Cloudy
1:13 PM 75.2 °F 62.6 °F 65% 29.91 in 10.0 mi ESE 4.6 mph - N/A   Mostly Cloudy
1:24 PM 75.2 °F 62.6 °F 65% 29.90 in 10.0 mi SE 5.8 mph - N/A   Overcast
1:53 PM 73.0 °F 64.0 °F 73% 29.88 in 5.0 mi East 6.9 mph - 0.00 in Rain Light Rain
2:53 PM 77.0 °F 63.0 °F 62% 29.86 in 10.0 mi East 5.8 mph - 0.00 in   Overcast
3:53 PM 75.9 °F 64.0 °F 67% 29.85 in 10.0 mi East 5.8 mph - N/A   Overcast
4:33 PM 75.2 °F 64.4 °F 69% 29.87 in 10.0 mi East 6.9 mph - N/A   Overcast
4:53 PM 75.0 °F 64.0 °F 69% 29.85 in 10.0 mi East 5.8 mph - N/A   Overcast
5:33 PM 75.2 °F 64.4 °F 69% 29.88 in 10.0 mi ENE 6.9 mph - N/A   Overcast
5:53 PM 75.0 °F 64.9 °F 71% 29.86 in 10.0 mi East 5.8 mph - N/A   Overcast
6:53 PM 73.9 °F 66.0 °F 76% 29.88 in 10.0 mi ENE 5.8 mph - N/A   Overcast
7:12 PM 73.4 °F 66.2 °F 78% 29.90 in 10.0 mi ENE 5.8 mph - N/A   Overcast
7:53 PM 73.0 °F 66.9 °F 81% 29.89 in 10.0 mi ENE 5.8 mph - N/A   Overcast
8:53 PM 73.0 °F 68.0 °F 84% 29.89 in 10.0 mi ENE 4.6 mph - N/A   Overcast
9:24 PM 73.4 °F 68.0 °F 83% 29.91 in 9.0 mi East 6.9 mph - N/A   Overcast
9:53 PM 73.0 °F 68.0 °F 84% 29.89 in 9.0 mi East 5.8 mph - N/A   Overcast
10:53 PM 73.0 °F 69.1 °F 87% 29.90 in 9.0 mi SE 5.8 mph - N/A   Overcast
11:30 PM 73.4 °F 69.8 °F 88% 29.92 in 9.0 mi ESE 6.9 mph - N/A   Overcast
11:37 PM 73.4 °F 69.8 °F 88% 29.92 in 9.0 mi ESE 4.6 mph - N/A   Overcast
11:53 PM 73.0 °F 69.1 °F 87% 29.90 in 9.0 mi ESE 8.1 mph - N/A   Overcast